Address 0xd5708ec965458724a063803ea854eb5b3eb1a3b8

 
Txn Hash
Block
From
To
Value [Txn Fee]
0xece1ba3d432201a0b823cd244a901bb277692400b444021d74ab0897f8d60c0776506322021-05-23 5:26:5122 days 19 hrs ago0xd5708ec965458724a063803ea854eb5b3eb1a3b8OUT SafeMars: SAFEMARS Token0 BNB0.002027526
0x2431fb48ed20d0ea63fdcfa8341261e6dafbca7dd86fc87774dd6ddf16b0878e76506142021-05-23 5:25:5722 days 19 hrs ago0xd5708ec965458724a063803ea854eb5b3eb1a3b8OUT SafeMars: SAFEMARS Token0 BNB0.002027382
0xa5da29a43d7053746c8708deaf84f5c807f451ab78570743d95ee4434110e4b776505672021-05-23 5:23:3622 days 19 hrs ago0xd5708ec965458724a063803ea854eb5b3eb1a3b8OUT PancakeSwap: Router v29.52374851 BNB0.003063198
0xe0aa238636cbcd97bd68b96bb45ce77ce5ed2330a9a06b16d3776f8e5953440b76505532021-05-23 5:22:5422 days 19 hrs agoBinance: Hot Wallet 5 IN 0xd5708ec965458724a063803ea854eb5b3eb1a3b89.5248571 BNB0.00021
0x64e5108b2d24e41506f3250094f5029d3d060508892dc815c79efa966219ee5774775522021-05-17 3:50:5028 days 21 hrs ago0xd5708ec965458724a063803ea854eb5b3eb1a3b8OUT PancakeSwap: Router v20.39950888 BNB0.00110859
0x5445d369770aa05c13f4ee7789db626ea6cbc07c1dc9e652cad19c1f91122b5c74775392021-05-17 3:50:1128 days 21 hrs agoBinance: Hot Wallet 5 IN 0xd5708ec965458724a063803ea854eb5b3eb1a3b80.4022888 BNB0.00021
0x6816e87c543c8c8eed873115693c6dc4ea03ebab5fb124ee863e3f273d255a5b74708352021-05-16 22:11:3029 days 2 hrs ago0xd5708ec965458724a063803ea854eb5b3eb1a3b8OUT PancakeSwap: Router v22.62681135 BNB0.00277992
0x8bd33ab15a79ce0459544215980bae3a6f7e5d6016ac49c367f69ff8e9ce61a774707002021-05-16 22:04:4529 days 2 hrs agoBinance: Hot Wallet 5 IN 0xd5708ec965458724a063803ea854eb5b3eb1a3b82.62959127 BNB0.00021
0x9ca9feb92a966dd31855d5be613b1afca409358ab854cd530b5b08b74150d60773867042021-05-13 22:50:2632 days 2 hrs ago0xd5708ec965458724a063803ea854eb5b3eb1a3b8OUT PancakeSwap: Router v21.631911995 BNB0.00277992
0xb2a68be04fc47b20baa804b5e19af9cb62e0891c3c918a68745dd332d80be86773866462021-05-13 22:47:3232 days 2 hrs agoBinance: Hot Wallet IN 0xd5708ec965458724a063803ea854eb5b3eb1a3b81.63857128 BNB0.00021
0x79c5cca9c355ac8bbbf5a2a5893d28742c01ca26f7a197046334d70abc48837173344862021-05-12 0:59:0033 days 23 hrs ago0xd5708ec965458724a063803ea854eb5b3eb1a3b8OUT Safemoon Protocol: SAFEMOON Token0 BNB0.000490028
0x186a182ec44f94a65c358792281b45efd03f87d2705ae4d07b28e3f1093e864773135312021-05-11 5:31:0934 days 19 hrs ago0xd5708ec965458724a063803ea854eb5b3eb1a3b8OUT PancakeSwap: Router v21.672725602 BNB0.006169257
0x865a67fc90bc448fb7836cc03a77555824b0974532db038d36146735a003be5d73127802021-05-11 4:46:3634 days 20 hrs agoBinance: Hot Wallet 2 IN 0xd5708ec965458724a063803ea854eb5b3eb1a3b81.67387462 BNB0.00021
0xf4f0ee521fd28fc574aca7e3236d46d1de6213061807ed521fd182193b80c90172819342021-05-09 23:21:3236 days 1 hr ago0xd5708ec965458724a063803ea854eb5b3eb1a3b8OUT PancakeSwap: Router v20.196059374809564 BNB0.001149018
0x2be41f8fd0cac230fc65cbbdb3ebfc83e9077b6ab671364378addc780c3888ff72819102021-05-09 23:20:2036 days 1 hr ago0xd5708ec965458724a063803ea854eb5b3eb1a3b8OUT PancakeSwap: Router v20.4 BNB0.00106893
0x2536465f7d261692ccd72ad6d356146168e545a22b46f11f351f0b3919107c5472819032021-05-09 23:19:5936 days 1 hr ago0xd5708ec965458724a063803ea854eb5b3eb1a3b8OUT PancakeSwap: Router v20.4 BNB0.00115893
0xc624d266d94b1ee7d34b49c070b7accc34ef109398e84939d3f3b01e39fb596b72815522021-05-09 23:01:5536 days 1 hr agoBinance: Hot Wallet 2 IN 0xd5708ec965458724a063803ea854eb5b3eb1a3b81.00447801 BNB0.000126
0x02119f911188791eb4cd0db0cf5ac75ad6a03d6e04919a8ed63494a79b6115d472813662021-05-09 22:52:2436 days 2 hrs ago0xd5708ec965458724a063803ea854eb5b3eb1a3b8OUT PancakeSwap: Router v20 BNB0.00108759
0x1721ee8acdfc896f50a05ed222aae94b9875e21d321043bced7118eb40f9b28072813632021-05-09 22:52:0936 days 2 hrs ago0xd5708ec965458724a063803ea854eb5b3eb1a3b8OUT PancakeSwap: Router v20 BNB0.001409712
0xb15db8438e9c14029683110724dd07ee859cc7da6ff3095bb34e9d12fc6dd8c072813602021-05-09 22:51:5436 days 2 hrs ago0xd5708ec965458724a063803ea854eb5b3eb1a3b8OUT Ethereum: ETH Token0 BNB0.000266436
0x9e528a27a9d773053c3c6673736cbb007137d67e886aa9b7570ed744375cb09771972302021-05-06 22:20:0239 days 2 hrs ago0xd5708ec965458724a063803ea854eb5b3eb1a3b8OUT PancakeSwap: Router v20.2819157 BNB0.00418527
0x9e00104d522d6125961eac6d8dc9d066169127898cfa2915ba59b46aaf87a2e671874402021-05-06 13:50:4339 days 11 hrs ago0xd5708ec965458724a063803ea854eb5b3eb1a3b8OUT0xcf33595d4228edd14ff21b3d7be98e63768bf19f0.7 BNB0.000126
0x59c97b322cf0935f12e8839392ba3580649653ad0ffa3b5ec9e96de18565d59371871682021-05-06 13:32:4639 days 11 hrs agoBinance: Hot Wallet 5 IN 0xd5708ec965458724a063803ea854eb5b3eb1a3b80.98653198 BNB0.000126
0x7a49a663cc7c35025074c24c4a517aedbe2cf33d6106817a445f656c5afb654d70338762021-05-01 4:05:4344 days 20 hrs ago0xd5708ec965458724a063803ea854eb5b3eb1a3b8OUT Eclipse: ECP Token0 BNB0.000619152
0x9be93ccd367c00ace955e4a1fde77163e55291fe26e49a47321f36aa4794231370336632021-05-01 3:55:0444 days 20 hrs ago0xd5708ec965458724a063803ea854eb5b3eb1a3b8OUT Eclipse: ECP Token0 BNB0.000619224
[ Download CSV Export 
Latest 1 internal transaction
Parent Txn Hash Block From To Value
0x02119f911188791eb4cd0db0cf5ac75ad6a03d6e04919a8ed63494a79b6115d472813662021-05-09 22:52:2436 days 2 hrs ago PancakeSwap: Router v20xd5708ec965458724a063803ea854eb5b3eb1a3b80.000758232809564512 BNB
[ Download CSV Export 
Loading

Contract Name:
0 BNB

Compiler Version
0

Optimization Enabled:
0 BNB

Other Settings:
-NA-
Block Transaction Gas Used Reward
Age Block Fee Address BC Fee Address Voting Power Jailed Incoming
Block Uncle Number Difficulty Gas Used Reward
Loading
Loading
Make sure to use the "Vote Down" button for any spammy posts, and the "Vote Up" for interesting conversations.